• In Uzbekistan
  • List of Countries
  • For 7 days
  • Water Temperature
  • Satellite Maps
  • Weather Map
  • Weather Widgets
  • user-avatar
    Login

    Hourly Weather Bad Dürrheim

    Today, 23 February, Saturday

    Time Temperature Precipitation Wind Pressure Humidity
    00:00 +2°C° 0 mm 3 mps 712 mmHg 95%
    01:00 +1°C° 0 mm 4 mps 712 mmHg 96%
    02:00 +1°C° 0 mm 4 mps 712 mmHg 94%
    03:00 +1°C° 0 mm 4 mps 712 mmHg 93%
    04:00 +1°C° 0 mm 4 mps 712 mmHg 92%
    05:00 +1°C° 0 mm 3 mps 712 mmHg 92%
    06:00 0°C° 0 mm 3 mps 711 mmHg 93%
    07:00 -1°C° 0 mm 2 mps 712 mmHg 93%
    08:00 0°C° 0 mm 3 mps 711 mmHg 87%
    09:00 +1°C° 0 mm 3 mps 711 mmHg 81%
    10:00 +1°C° 0 mm 4 mps 711 mmHg 74%
    11:00 +3°C° 0 mm 4 mps 711 mmHg 63%
    12:00 +5°C° 0 mm 5 mps 711 mmHg 53%
    13:00 +6°C° 0 mm 5 mps 712 mmHg 43%
    14:00 +5°C° 0 mm 5 mps 711 mmHg 42%
    15:00 +5°C° 0 mm 5 mps 711 mmHg 41%
    16:00 +5°C° 0 mm 4 mps 710 mmHg 40%
    17:00 +3°C° 0 mm 4 mps 710 mmHg 43%
    18:00 +1°C° 0 mm 4 mps 710 mmHg 46%
    19:00 0°C° 0 mm 3 mps 710 mmHg 48%
    20:00 0°C° 0 mm 3 mps 710 mmHg 46%
    21:00 -1°C° 0 mm 3 mps 710 mmHg 44%
    22:00 -1°C° 0 mm 3 mps 710 mmHg 42%
    23:00 -1°C° 0 mm 3 mps 710 mmHg 40%

    Tomorrow, 24 February, Sunday

    Time Temperature Precipitation Wind Pressure Humidity
    00:00 -1°C° 0 mm 3 mps 710 mmHg 39%
    01:00 -1°C° 0 mm 3 mps 711 mmHg 37%
    02:00 -1°C° 0 mm 3 mps 711 mmHg 37%
    03:00 -1°C° 0 mm 3 mps 711 mmHg 36%
    04:00 -1°C° 0 mm 2 mps 711 mmHg 36%
    05:00 -2°C° 0 mm 2 mps 711 mmHg 37%
    06:00 -2°C° 0 mm 2 mps 711 mmHg 37%
    07:00 -2°C° 0 mm 2 mps 711 mmHg 38%
    08:00 +1°C° 0 mm 2 mps 711 mmHg 36%
    09:00 +2°C° 0 mm 2 mps 712 mmHg 34%
    10:00 +4°C° 0 mm 2 mps 712 mmHg 32%
    11:00 +6°C° 0 mm 2 mps 712 mmHg 32%
    12:00 +8°C° 0 mm 2 mps 713 mmHg 32%
    13:00 +9°C° 0 mm 2 mps 713 mmHg 32%
    14:00 +9°C° 0 mm 2 mps 713 mmHg 35%
    15:00 +9°C° 0 mm 2 mps 712 mmHg 39%
    16:00 +9°C° 0 mm 2 mps 712 mmHg 43%
    17:00 +7°C° 0 mm 2 mps 712 mmHg 49%
    18:00 +5°C° 0 mm 2 mps 712 mmHg 55%
    19:00 +2°C° 0 mm 2 mps 712 mmHg 61%
    20:00 +2°C° 0 mm 2 mps 712 mmHg 59%
    21:00 +1°C° 0 mm 2 mps 712 mmHg 57%
    22:00 +1°C° 0 mm 2 mps 712 mmHg 55%
    23:00 +1°C° 0 mm 2 mps 712 mmHg 55%

    Day after tomorrow, 25 February, Monday

    Time Temperature Precipitation Wind Pressure Humidity
    00:00 +1°C° 0 mm 2 mps 712 mmHg 55%
    01:00 +1°C° 0 mm 2 mps 712 mmHg 56%
    02:00 +1°C° 0 mm 2 mps 712 mmHg 58%
    03:00 +1°C° 0 mm 2 mps 711 mmHg 60%
    04:00 +1°C° 0 mm 2 mps 711 mmHg 62%
    05:00 +1°C° 0 mm 2 mps 711 mmHg 64%
    06:00 +1°C° 0 mm 2 mps 711 mmHg 66%
    07:00 +1°C° 0 mm 2 mps 711 mmHg 68%
    08:00 +2°C° 0 mm 3 mps 712 mmHg 64%
    09:00 +4°C° 0 mm 3 mps 712 mmHg 61%
    10:00 +6°C° 0 mm 4 mps 713 mmHg 57%
    11:00 +7°C° 0 mm 4 mps 713 mmHg 56%
    12:00 +10°C° 0 mm 4 mps 713 mmHg 55%
    13:00 +11°C° 0 mm 4 mps 713 mmHg 54%
    14:00 +11°C° 0 mm 4 mps 713 mmHg 55%
    15:00 +11°C° 0 mm 4 mps 712 mmHg 57%
    16:00 +11°C° 0 mm 4 mps 712 mmHg 58%
    17:00 +8°C° 0 mm 4 mps 712 mmHg 65%
    18:00 +7°C° 0 mm 3 mps 712 mmHg 72%
    19:00 +5°C° 0 mm 2 mps 711 mmHg 79%
    20:00 +4°C° 0 mm 2 mps 712 mmHg 79%
    21:00 +4°C° 0 mm 2 mps 712 mmHg 80%
    22:00 +3°C° 0 mm 2 mps 712 mmHg 80%
    23:00 +3°C° 0 mm 2 mps 712 mmHg 81%

    26 February, Tuesday

    Time Temperature Precipitation Wind Pressure Humidity
    00:00 +3°C° 0 mm 2 mps 712 mmHg 82%
    01:00 +3°C° 0 mm 2 mps 712 mmHg 82%
    02:00 +3°C° 0 mm 2 mps 712 mmHg 84%
    03:00 +2°C° 0 mm 2 mps 711 mmHg 85%
    04:00 +2°C° 0 mm 2 mps 711 mmHg 86%
    05:00 +3°C° 0 mm 1 mps 711 mmHg 87%
    06:00 +2°C° 0 mm 1 mps 711 mmHg 87%
    07:00 +2°C° 0 mm 1 mps 711 mmHg 88%
    08:00 +4°C° 0 mm 1 mps 711 mmHg 80%
    09:00 +6°C° 0 mm 1 mps 712 mmHg 72%
    10:00 +9°C° 0 mm 1 mps 712 mmHg 64%
    11:00 +10°C° 0 mm 1 mps 712 mmHg 57%
    12:00 +12°C° 0 mm 1 mps 712 mmHg 51%
    13:00 +14°C° 0 mm 2 mps 712 mmHg 45%
    14:00 +14°C° 0 mm 2 mps 712 mmHg 47%
    15:00 +14°C° 0 mm 2 mps 712 mmHg 49%
    16:00 +14°C° 0 mm 2 mps 712 mmHg 50%
    17:00 +10°C° 0 mm 2 mps 712 mmHg 59%
    18:00 +9°C° 0 mm 1 mps 712 mmHg 69%
    19:00 +7°C° 0 mm 1 mps 711 mmHg 78%
    20:00 +6°C° 0 mm 1 mps 711 mmHg 77%
    21:00 +5°C° 0 mm 1 mps 711 mmHg 77%
    22:00 +5°C° 0 mm 1 mps 711 mmHg 77%
    23:00 +4°C° 0 mm 1 mps 711 mmHg 77%

    27 February, Wednesday

    Time Temperature Precipitation Wind Pressure Humidity
    00:00 +4°C° 0 mm 1 mps 711 mmHg 76%
    01:00 +4°C° 0 mm 1 mps 710 mmHg 76%
    02:00 +3°C° 0 mm 1 mps 710 mmHg 75%
    03:00 +3°C° 0 mm 1 mps 710 mmHg 75%
    04:00 +3°C° 0 mm 1 mps 709 mmHg 75%
    05:00 +3°C° 0 mm 1 mps 709 mmHg 75%
    06:00 +3°C° 0 mm 1 mps 709 mmHg 75%
    07:00 +3°C° 0 mm 1 mps 709 mmHg 75%
    08:00 +5°C° 0 mm 1 mps 709 mmHg 68%
    09:00 +7°C° 0 mm 1 mps 709 mmHg 61%
    10:00 +9°C° 0 mm 1 mps 710 mmHg 54%
    11:00 +11°C° 0 mm 1 mps 710 mmHg 49%
    12:00 +13°C° 0 mm 1 mps 709 mmHg 45%
    13:00 +15°C° 0 mm 1 mps 709 mmHg 41%
    14:00 +15°C° 0 mm 1 mps 709 mmHg 42%
    15:00 +15°C° 0 mm 1 mps 709 mmHg 44%
    16:00 +14°C° 0 mm 0 mps 708 mmHg 46%
    17:00 +12°C° 0 mm 0 mps 708 mmHg 53%
    18:00 +10°C° 0 mm 1 mps 708 mmHg 61%
    19:00 +8°C° 0 mm 1 mps 708 mmHg 69%
    20:00 +7°C° 0 mm 1 mps 708 mmHg 70%
    21:00 +7°C° 0 mm 1 mps 708 mmHg 71%
    22:00 +7°C° 0 mm 1 mps 708 mmHg 73%
    23:00 +6°C° 0 mm 1 mps 708 mmHg 73%

    28 February, Thursday

    Time Temperature Precipitation Wind Pressure Humidity
    00:00 +6°C° 0 mm 1 mps 708 mmHg 74%
    01:00 +6°C° 0 mm 1 mps 708 mmHg 75%
    02:00 +5°C° 0 mm 1 mps 707 mmHg 77%
    03:00 +5°C° 0 mm 1 mps 707 mmHg 78%
    04:00 +4°C° 0 mm 1 mps 707 mmHg 79%
    05:00 +4°C° 0 mm 1 mps 707 mmHg 79%
    06:00 +4°C° 0 mm 1 mps 707 mmHg 78%
    07:00 +4°C° 0 mm 1 mps 707 mmHg 77%
    08:00 +6°C° 0 mm 1 mps 707 mmHg 70%
    09:00 +7°C° 0 mm 2 mps 708 mmHg 63%
    10:00 +9°C° 0 mm 2 mps 708 mmHg 57%
    11:00 +12°C° 0 mm 2 mps 708 mmHg 55%
    12:00 +12°C° 0 mm 3 mps 708 mmHg 53%
    13:00 +13°C° 0 mm 3 mps 708 mmHg 52%
    14:00 +13°C° 0 mm 3 mps 707 mmHg 53%
    15:00 +13°C° 0 mm 3 mps 707 mmHg 55%
    16:00 +13°C° 0 mm 3 mps 707 mmHg 56%
    17:00 +12°C° 0 mm 2 mps 707 mmHg 66%
    18:00 +8°C° 0 mm 2 mps 707 mmHg 76%
    19:00 +6°C° 0 mm 2 mps 707 mmHg 86%
    20:00 +7°C° 0 mm 1 mps 707 mmHg 88%
    21:00 +6°C° 0 mm 1 mps 707 mmHg 90%
    22:00 +5°C° 0 mm 1 mps 707 mmHg 92%
    23:00 +5°C° 0 mm 1 mps 706 mmHg 93%
    Show more